This demonstration page uses our WeatherBlox Daily Observations layout. Learn more.

Left ArrowRight Arrow

Hourly Observations for January 14, 2017

Temp ( °F °C ) Dew Point ( °F °C ) Humidity (%) Winds ( mph kmh ) Pressure ( in mb ) Visibility ( mi km ) Precip ( " mm )
12:53 am 00:53 Clear 49 9.4 27 -2.8 43 43 NNW 7 11 30.20 1023 10 16 0.00 0.00
1:53 am 01:53 Clear 49 9.4 27 -2.8 43 43 N 6 9 30.21 1023 10 16 0.00 0.00
2:53 am 02:53 Clear 49 9.4 27 -2.8 43 43 N 10 17 30.22 1023 10 16 0.00 0.00
3:53 am 03:53 Clear 48 8.9 27 -2.8 44 44 N 12 19 30.22 1023 10 16 0.00 0.00
4:53 am 04:53 Clear 48 8.9 27 -2.8 44 44 N 8 13 30.22 1023 10 16 0.00 0.00
5:53 am 05:53 Clear 46 7.8 27 -2.8 47 47 NNW 7 11 30.22 1023 10 16 0.00 0.00
6:53 am 06:53 Clear 46 7.8 27 -2.8 47 47 N 7 11 30.21 1023 10 16 0.00 0.00
7:53 am 07:53 Sunny 46 7.8 27 -2.8 47 47 N 8 13 30.22 1023 10 16 0.00 0.00
8:53 am 08:53 Sunny 49 9.4 28 -2.2 44 44 N 9 15 30.24 1024 10 16 0.00 0.00
9:53 am 09:53 Sunny 52 11.1 30 -1.1 43 43 N 9 15 30.25 1024 10 16 0.00 0.00
10:53 am 10:53 Sunny 54 12.2 30 -1.1 40 40 N 9 15 30.23 1024 10 16 0.00 0.00
11:53 am 11:53 Sunny 57 13.9 31 -0.6 37 37 N 14 22 30.19 1022 10 16 0.00 0.00
12:53 pm 12:53 Sunny 58 14.4 31 -0.6 36 36 NNE 15 24 30.16 1021 10 16 0.00 0.00
1:53 pm 13:53 Sunny 59 15 31 -0.6 35 35 NNE 12 19 30.13 1020 10 16 0.00 0.00
2:53 pm 14:53 Sunny 59 15 30 -1.1 33 33 N 9 15 30.12 1020 10 16 0.00 0.00
3:53 pm 15:53 Sunny 59 15 32 0 36 36 NNE 9 15 30.12 1020 10 16 0.00 0.00
4:53 pm 16:53 Sunny 56 13.3 32 0 40 40 N 8 13 30.12 1020 10 16 0.00 0.00
5:53 pm 17:53 Clear 51 10.6 32 0 48 48 N 6 9 30.12 1020 10 16 0.00 0.00
6:53 pm 18:53 Clear 52 11.1 31 -0.6 45 45 N 6 9 30.13 1020 10 16 0.00 0.00
7:53 pm 19:53 Clear 47 8.3 32 0 56 56 N 3 6 30.14 1021 10 16 0.00 0.00
8:53 pm 20:53 Clear 40 4.4 34 1.1 79 79 Calm 30.14 1021 10 16 0.00 0.00
9:53 pm 21:53 Clear 40 4.4 34 1.1 79 79 Calm 30.14 1021 10 16 0.00 0.00
10:53 pm 22:53 Clear 40 4.4 34 1.1 79 79 Calm 30.15 1021 10 16 0.00 0.00
11:53 pm 23:53 Clear 38 3.3 34 1.1 86 86 Calm 30.13 1020 10 16 0.00 0.00

Powered by AerisWeather